Flag for U.S.A. Weather past 2 weeks in Yonkers, New York, U.S.A.

Now
71 °F

Light rain. Mostly cloudy.


Feels Like: 74 °F
Forecast: 67 / 78 °F
Wind: No wind

Location: Teterboro Airport

Current Time: Aug 21, 2014 at 4:13:07 AM

Latest Report: Aug 21, 2014 at 3:51 AM


Visibility: 9 mi

Pressure: 30.02 "Hg

Humidity: 71%

Dew point: 61 °F

Location of YonkersLocation

Historic Weather in Yonkers — Graph

°F

Yonkers temperature yesterday

Maximum temperature yesterday: 84 °F (at 1:51 PM)
Minimum temperature yesterday: 69 °F (at 2:51 AM)
Average temperature yesterday: 76 °F

Past Weeks' High & Low Weather Summary

 TemperatureHumidityPressure
High92 °F (Aug 10, 2:51 PM)90% (Aug 13, 2:51 AM)30.14 "Hg (Aug 13, 2:51 AM)
Low59 °F (Aug 15, 4:51 AM)23% (Aug 9, 5:51 PM)29.64 "Hg (Aug 13, 4:51 PM)
Average74 °F54%29.94 "Hg
* Reported Aug 6 2:51 AM — Aug 21 2:51 AM, Yonkers, Weather by CustomWeather, © 2014

Note: Actual official high and low records may vary slightly from our data, if they occured in-between our weather recording intervals... More about our weather records

Advertising

Yonkers weather history for previous 24 hours

 ConditionsComfort  
Time TempWeatherWind HumidityBarometerVisibility
2:51 AM
Aug 21
72 °FMostly cloudy.6 mph68%30.02 "Hg10 mi
1:51 AM73 °FMostly cloudy.5 mph66%30.03 "Hg10 mi
12:51 AM72 °FPassing clouds.5 mph68%30.03 "Hg10 mi
11:51 PM
Aug 20
73 °FClear.7 mph69%30.02 "Hg10 mi
10:51 PM73 °FClear.5 mph66%30.00 "Hg10 mi
9:51 PM73 °FClear.5 mph62%30.00 "Hg10 mi
8:51 PM74 °FClear.7 mph57%30.00 "Hg10 mi
7:51 PM76 °FSunny.7 mph48%29.99 "Hg10 mi
6:51 PM78 °FSunny.8 mph45%29.98 "Hg10 mi
5:51 PM81 °FSunny.10 mph44%29.97 "Hg10 mi
4:51 PM83 °FSunny.9 mph41%29.96 "Hg10 mi
3:51 PM83 °FSunny.13 mph41%29.95 "Hg10 mi
2:51 PM84 °FSunny.8 mph41%29.95 "Hg10 mi
1:51 PM84 °FSunny.9 mph43%29.96 "Hg10 mi
12:51 PM82 °FSunny.8 mph46%29.98 "Hg10 mi
11:51 AM81 °FPassing clouds.6 mph49%29.99 "Hg10 mi
10:51 AM80 °FPassing clouds.6 mph54%29.99 "Hg10 mi
9:51 AM77 °FPartly sunny.6 mph64%29.99 "Hg10 mi
8:51 AM74 °FOvercast.No wind71%29.98 "Hg10 mi
7:51 AM72 °FOvercast.No wind78%29.98 "Hg10 mi
7:02 AM72 °FPartly cloudy.No wind78%29.96 "Hg10 mi
6:51 AM71 °FMostly cloudy.No wind78%29.96 "Hg10 mi
5:51 AM70 °FMostly cloudy.No wind81%29.95 "Hg10 mi
4:51 AM70 °FMostly cloudy.No wind81%29.94 "Hg10 mi
Weather by CustomWeather, © 2014

See weather overviewHow to use our weather pages